Location: Vancouver
(49.2500°N, 123.1333°W)
Time: 13:07:16
(UTC-07:00)

Daily predictions for brighter satellites

Satellite Brightness Start Highest point End
(mag) Time Altitude Azimuth Time Altitude Azimuth Time Altitude Azimuth
ATLAS 3B R/B 3.7 21:34:51 10° SSE 21:41:14 29° ESE 21:47:29 10° NE
ERS-1 Rocket 4.0 21:41:12 10° S 21:46:02 47° W 21:50:53 10° NNW
Lacrosse 4 Rocket 3.0 21:44:29 10° SE 21:47:01 16° ESE 21:49:35 10° ENE
ALOS 4.4 21:45:45 10° SSW 21:49:35 25° W 21:53:26 10° NW
UNK 4.5 21:47:07 10° NNE 21:52:24 52° ESE 21:57:55 10° S
CZ-4 SHROUD 3.6 21:50:50 10° S 21:53:58 64° WSW 21:57:07 10° NNW
Envisat 3.3 21:50:53 10° S 21:55:56 71° WSW 22:01:03 10° NNW
USA 234 3.4 21:51:49 10° SE 21:58:25 81° SW 22:05:02 10° WNW
SPOT 5 2.8 21:54:24 10° S 21:58:45 71° WSW 22:03:06 10° NNW
Cosmos 407 Rocket 4.5 21:54:54 10° SSE 21:59:21 28° E 22:03:45 10° NE
Nimbus 7 Rocket 4.5 21:54:16 10° NNE 22:00:16 87° ESE 22:06:11 10° SSW
ARGOS 3.4 21:56:26 10° SSE 22:01:44 58° ENE 22:07:04 10° N
Cosmos 2369 Rocket 2.3 21:59:02 10° NNW 22:04:46 89° ENE 22:10:24 10° SSE
Lacrosse 5 3.5 22:04:43 10° WNW 22:09:23 35° N 22:14:03 10° ENE
Terra 2.9 22:06:05 10° SE 22:10:15 31° ENE 22:14:26 10° N
PSLV R/B 4.4 22:08:03 10° S 22:11:00 40° W 22:13:59 10° NNW
Cosmos 1238 4.3 22:10:39 10° SSW 22:13:41 76° W 22:16:46 10° N
MetOp-B 4.4 22:09:45 10° S 22:15:05 72° WSW 22:20:28 10° NNW
SL-16 R/B 4.1 22:12:52 10° WSW 22:18:01 35° NW 22:23:13 10° NNE
NOAA 11 4.2 22:16:57 10° SSE 22:22:18 76° ENE 22:27:44 10° NNW
USA 81 4.1 22:17:36 10° N 22:22:57 85° W 22:28:13 10° S
CZ-4C R/B 3.6 22:19:34 13° SSE 22:23:16 60° ENE 22:27:14 10° N
Cosmos 1758 Rocket 3.9 22:21:04 10° SSE 22:25:15 47° E 22:29:26 10° NNE
CARTOSAT-1 4.2 22:25:28 14° SE 22:28:55 43° ENE 22:33:02 10° N
Cosmos 1515 4.1 22:25:45 10° SSW 22:29:34 66° W 22:33:27 10° N
YAOGAN 6 3.2 22:26:21 10° S 22:30:01 57° W 22:33:45 10° NNW
Atlas Centaur 2 4.2 22:25:56 10° SW 22:31:02 19° S 22:34:58 14° SE
DELTA 2 DEB (DPAF) 4.2 22:27:30 13° SSE 22:31:28 75° ENE 22:35:58 10° NNW
BREEZE M DEB (TANK) 3.3 22:32:01 10° SW 22:33:05 13° SSW 22:33:24 12° S
Cosmos 2263 4.3 22:27:51 10° NNW 22:33:29 77° WSW 22:38:22 14° SSE
Cosmos 1953 3.1 22:32:32 10° N 22:36:17 38° ENE 22:38:56 17° SE
Lacrosse 5 rocket 3.3 22:35:53 10° WNW 22:39:31 31° NNW 22:43:19 10° NE
Cosmos 1825 Rocket 3.8 22:37:46 10° SSW 22:42:13 72° W 22:46:40 10° N
COSMOS 2406 4.3 22:39:41 15° SE 22:42:54 25° ESE 22:47:29 10° NE
Meteor 1-22 Rocket 4.4 22:38:27 10° NNW 22:44:00 71° W 22:49:29 11° S
Geosat 4.4 22:39:53 10° NE 22:44:40 41° ESE 22:49:08 11° S
SeaSat 1 3.9 22:41:41 10° S 22:46:00 30° WSW 22:50:21 10° NW
Cosmos 1066 Rocket 4.4 22:41:57 10° SSW 22:47:41 79° WNW 22:53:34 10° N
SAR-Lupe-2 3.5 22:48:41 20° SSE 22:51:02 76° ENE 22:54:38 10° N
Cosmos 1842 Rocket 4.4 22:47:25 10° N 22:51:31 37° ENE 22:54:12 19° SE
H-2A R/B 2.0 22:47:46 17° SSE 22:51:38 75° ENE 22:56:45 10° NNW
BREEZE-M DEB (TANK) 1.8 22:49:24 10° WSW 22:51:52 44° SSE 22:53:04 19° E
Cosmos 1570 Rocket 4.4 22:47:16 10° NNW 22:52:36 58° ENE 22:56:29 18° SE
CZ-4B R/B 4.0 22:48:24 10° N 22:53:24 63° WNW 22:58:31 10° SSW
Cosmos 1190 Rocket 4.1 22:48:57 10° SSW 22:54:16 87° WNW 22:59:38 10° NNE
Cosmos 1346 Rocket 3.0 22:53:04 10° SSW 22:56:58 68° WNW 23:00:55 10° N
SL-8 R/B 3.7 22:58:10 10° W 23:02:59 69° SSW 23:06:53 15° ESE
COSMOS 2455 3.6 22:58:35 10° SW 23:04:30 57° NW 23:10:27 10° NNE
Cosmos 1943 Rocket 2.2 22:59:44 10° NNW 23:05:18 77° WSW 23:09:12 20° SSE
ISS -3.5 23:03:19 10° WSW 23:06:35 80° SSE 23:09:52 10° ENE
Cosmos 1842 3.2 23:05:12 19° S 23:07:55 78° E 23:11:52 10° NNE
Spot 2 4.5 23:04:09 10° NNE 23:08:53 60° ESE 23:12:25 19° S
Cosmos 1943 3.6 23:03:31 10° SW 23:09:10 68° WNW 23:14:53 10° NNE
Cosmos 676 Rocket 4.0 23:05:48 10° SSW 23:11:08 82° ESE 23:16:30 10° NNE
Cosmos 1140 Rocket 3.9 23:08:25 20° SSE 23:11:42 44° ESE 23:16:41 10° NE
IGS 5A 3.5 23:11:16 22° S 23:13:51 80° WSW 23:18:04 10° NNW
DMSP B5D2-2 4.1 23:11:39 10° NNE 23:16:57 68° ESE 23:20:48 19° S
Cosmos 2084 3.6 23:13:45 10° NW 23:17:48 59° SW 23:19:58 26° SSE
Cosmos 1656 Rocket 3.8 23:12:22 10° NNW 23:18:06 72° ENE 23:21:49 22° SE
Nadezhda 4 Rocket 4.1 23:16:48 19° S 23:21:23 65° E 23:27:39 10° NNE
Cosmos 1758 3.5 23:18:47 10° NNW 23:22:55 71° W 23:25:16 24° S
H-2A R/B 4.5 23:23:45 10° ENE 23:25:15 12° E 23:25:46 12° E
Lacrosse 4 Rocket 1.8 23:21:14 10° SW 23:25:16 62° NW 23:29:23 10° NNE
Cosmos 1733 4.2 23:22:54 10° N 23:26:31 36° ENE 23:28:06 25° ESE
COSMOS 2487 3.8 23:26:25 23° ESE 23:26:46 23° ESE 23:29:42 10° NE
SL-27 R/B 2.2 23:27:57 28° SSW 23:29:35 83° ESE 23:32:57 10° NNE
ATLAS 3B R/B 3.0 23:23:41 10° SW 23:31:25 82° NW 23:38:54 10° NE
Cosmos 2221 3.5 23:29:01 10° N 23:32:59 34° ENE 23:34:57 23° ESE
Cosmos-2242 3.9 23:31:42 10° NNW 23:35:53 43° W 23:38:43 19° SSW
Spot 4 4.3 23:35:22 22° S 23:38:17 55° W 23:43:01 10° NNW
Cosmos 614 Rocket 4.3 23:35:47 26° SSE 23:38:18 47° ESE 23:43:20 10° NNE
NOSS 3-2 (A) 4.5 23:37:25 23° SE 23:39:20 27° ESE 23:44:42 10° ENE
Cosmos 407 Rocket 4.5 23:36:04 10° SW 23:41:08 47° WNW 23:46:10 10° NNE
USA 234 4.4 23:38:31 18° S 23:42:04 28° SW 23:47:34 10° WNW
CZ-4C R/B 3.3 23:43:54 22° SE 23:45:00 23° ESE 23:49:35 10° ENE
Cosmos 1818 4.2 23:39:39 10° NNW 23:45:02 52° NE 23:49:06 17° ESE
Meteor 2-5 Rocket 4.1 23:42:23 26° SSE 23:45:30 52° E 23:51:04 10° NNE
Terra 2.9 23:44:53 18° SSW 23:47:55 37° W 23:52:21 10° NNW
Cosmos 2369 Rocket 4.3 23:44:37 10° WNW 23:47:57 16° W 23:51:18 10° SW
CZ-4B R/B 3.1 23:51:36 22° ESE 23:53:00 28° ENE 23:56:13 10° N
Lacrosse 5 3.1 23:48:28 10° NW 23:53:17 41° NNE 23:58:05 10° E
Cosmos 1470 2.7 23:50:43 10° N 23:54:39 84° WSW 23:56:02 38° S
Cosmos 2228 Rocket 4.5 23:52:20 10° N 23:56:09 28° ENE 23:58:09 20° ESE
